Buffalo, NY

5:38 PM EST on November 19, 2017 (GMT -0500)
Buffalo Niagara International

Weather History for KBUF - March, 2013

Change the Weather History Date:

Sunday, March 10, 2013

  Actual Average Record
Temperature  
Mean Temperature 52 °F 32 °F  
Max Temperature 65 °F 40 °F 68 °F (1878)
Min Temperature 38 °F 24 °F 5 °F (1984)
Degree Days  
Heating Degree Days 13 33  
Month to date heating degree days 331 346  
Since 1 July heating degree days 4651 5090  
Cooling Degree Days 0 0  
Month to date cooling degree days 0 0  
Year to date cooling degree days 0 0  
Moisture  
Dew Point 28 °F    
Average Humidity 44    
Maximum Humidity 59    
Minimum Humidity 29    
Precipitation  
Precipitation T in 0.08 in 0.89 in (2011)
Month to date precipitation 0.21 0.90  
Year to date precipitation 5.76 6.57  
Snow  
Snow 0.00 in 0.50 in 7.80 in (1964)
Month to date snowfall 4.5 5.3  
Since 1 July snowfall 53.2 84.1  
Snow Depth 0.00 in    
Sea Level Pressure  
Sea Level Pressure 30.04 in    
Wind  
Wind Speed 12 mph (South)    
Max Wind Speed 24 mph    
Max Gust Speed 28 mph    
Visibility 10 miles    
Events Rain    
T = Trace of Precipitation, MM = Missing Value Source: NWS Daily Summary

Daily Weather History Graph

Daily Weather History Graph

Search for Another Location

Airport or City:

Trip Planner

Search our weather history database for the weather conditions in past years. The results will help you decide how hot, cold, wet, or windy it might be!

Date:

Astronomy

Mar. 10, 2013 Rise Set
Actual Time 7:35 AM EDT 7:15 PM EDT
Civil Twilight 7:07 AM EDT 7:43 PM EDT
Nautical Twilight 6:34 AM EDT 8:16 PM EDT
Astronomical Twilight 6:01 AM EDT 8:50 PM EDT
Moon 6:35 AM EDT (3/10) 6:21 PM EDT (3/10)
Length of Visible Light 12h 36m
Length of Day
11h 40m
Waning Crescent, 2% of the Moon is Illuminated
Mar 10
Waning Crescent
Mar 11
New
Mar 19
First Quarter
Mar 27
Full
Apr 3
Last Quarter

Hourly Weather History & Observations

Time (EDT) Temp. Windchill Dew Point Humidity Pressure Visibility Wind Dir Wind Speed Gust Speed Precip Events Conditions
12:54 AM 39.0 °F 34.0 °F 26.1 °F 60% 30.17 in 10.0 mi ESE 6.9 mph - N/A   Overcast
1:54 AM 42.1 °F 37.1 °F 24.1 °F 49% 30.16 in 10.0 mi SE 8.1 mph - N/A   Overcast
3:54 AM 41.0 °F 37.1 °F 24.1 °F 51% 30.13 in 10.0 mi SSE 5.8 mph - N/A   Overcast
4:54 AM 44.1 °F 39.5 °F 23.0 °F 43% 30.11 in 10.0 mi SE 8.1 mph - N/A   Overcast
5:54 AM 46.0 °F 42.5 °F 21.9 °F 39% 30.11 in 10.0 mi SSE 6.9 mph - 0.00 in Rain Light Rain
6:54 AM 46.0 °F 41.4 °F 21.9 °F 39% 30.09 in 10.0 mi SSE 9.2 mph - 0.00 in   Mostly Cloudy
7:54 AM 46.4 °F 41.9 °F 23.0 °F 40% 30.07 in 10.0 mi SSE 9.2 mph - N/A   Mostly Cloudy
8:54 AM 48.9 °F - 23.0 °F 36% 30.09 in 10.0 mi SSE 10.4 mph - N/A   Mostly Cloudy
9:54 AM 50.0 °F - 24.1 °F 36% 30.09 in 10.0 mi South 9.2 mph - N/A   Mostly Cloudy
10:54 AM 55.0 °F - 25.0 °F 31% 30.08 in 10.0 mi South 13.8 mph - N/A   Mostly Cloudy
11:54 AM 60.1 °F - 28.9 °F 31% 30.06 in 10.0 mi SSW 17.3 mph 24.2 mph N/A   Mostly Cloudy
12:54 PM 57.9 °F - 28.0 °F 32% 30.06 in 10.0 mi South 18.4 mph 24.2 mph N/A   Mostly Cloudy
1:54 PM 62.1 °F - 32.0 °F 32% 30.04 in 10.0 mi South 17.3 mph 24.2 mph N/A   Mostly Cloudy
2:54 PM 64.0 °F - 34.0 °F 33% 29.99 in 10.0 mi SSW 15.0 mph - N/A   Mostly Cloudy
3:54 PM 64.9 °F - 35.1 °F 33% 29.97 in 10.0 mi SSW 17.3 mph 23.0 mph N/A   Mostly Cloudy
4:54 PM 64.0 °F - 33.1 °F 31% 29.97 in 10.0 mi SSW 15.0 mph - N/A   Mostly Cloudy
5:54 PM 63.0 °F - 33.1 °F 33% 29.96 in 10.0 mi SSW 13.8 mph - N/A   Overcast
6:54 PM 61.0 °F - 30.9 °F 32% 29.98 in 10.0 mi SSW 10.4 mph - N/A   Mostly Cloudy
7:54 PM 55.0 °F - 32.0 °F 42% 29.99 in 10.0 mi South 8.1 mph - N/A   Mostly Cloudy
8:54 PM 57.0 °F - 28.9 °F 34% 29.99 in 10.0 mi South 10.4 mph - N/A   Mostly Cloudy
9:54 PM 55.4 °F - 28.4 °F 36% 29.99 in 10.0 mi South 9.2 mph - N/A   Overcast
10:54 PM 55.0 °F - 28.0 °F 35% 29.97 in 10.0 mi South 12.7 mph - N/A   Mostly Cloudy
11:54 PM 55.0 °F - 28.0 °F 35% 29.94 in 10.0 mi South 13.8 mph - N/A   Mostly Cloudy
12:54 AM 53.6 °F - 28.4 °F 38% 29.93 in 10.0 mi SSE 10.4 mph - N/A   Mostly Cloudy